Voltar ao catálogo

COSMOS 2251 DEB

AtivoLEO
NORAD 34567·DEBRIS·🇷🇺 Russia

Lançado Jun 16, 1993 de Plesetsk Cosmodrome

Loading…

Próximas Passagens (próximas 24 horas)

TLE

AtualizadoSource: Space-Track

Época: Sep 14, 2026, 08:19 UTC

1 34567U 93036VD  26257.34721681  .00000188  00000-0  89869-4 0  9991
2 34567  74.0435  20.6324 0073457  27.3438   3.6023 14.24236004910482

Acompanhe COSMOS 2251 DEB em tempo real com AllMySat

Download on the App Store